When you browse on this site, cookies collect data to enhance your experience and personalize the content and advertising you see.
Visit our Privacy Policy to learn more. By continuing to use the site, you agree to this use of cookies and data.
  • In Denmark
  • List of Countries
  • For 7 days
  • Water Temperature
  • Satellite Maps
  • Weather Map
  • Weather Widgets
  • user-avatar
    Login

    Hourly Weather Klagenfurt

    Today, 17 January, Thursday

    Time Temperature Precipitation Wind Pressure Humidity
    00:00 -1°C° 0 mm 2 mps 686 mmHg 93%
    01:00 -1°C° 0 mm 2 mps 686 mmHg 93%
    02:00 +1°C° 0 mm 2 mps 686 mmHg 93%
    03:00 +1°C° 0 mm 2 mps 686 mmHg 93%
    04:00 +1°C° 0 mm 2 mps 685 mmHg 93%
    05:00 +1°C° 0 mm 2 mps 685 mmHg 93%
    06:00 +1°C° 0 mm 2 mps 685 mmHg 93%
    07:00 +1°C° 0 mm 2 mps 685 mmHg 93%
    08:00 +2°C° 0 mm 2 mps 685 mmHg 91%
    09:00 +2°C° 0 mm 2 mps 685 mmHg 90%
    10:00 +3°C° 0 mm 2 mps 685 mmHg 89%
    11:00 +3°C° 0.1 mm 2 mps 685 mmHg 88%
    12:00 +4°C° 0.1 mm 2 mps 685 mmHg 87%
    13:00 +4°C° 0.1 mm 2 mps 684 mmHg 86%
    14:00 +4°C° 0.3 mm 2 mps 684 mmHg 88%
    15:00 +4°C° 0.3 mm 2 mps 684 mmHg 90%
    16:00 +3°C° 0.3 mm 2 mps 683 mmHg 92%
    17:00 +3°C° 0.8 mm 2 mps 683 mmHg 92%
    18:00 +4°C° 0.8 mm 1 mps 683 mmHg 93%
    19:00 +4°C° 0.8 mm 1 mps 683 mmHg 94%
    20:00 +4°C° 2 mm 1 mps 683 mmHg 94%
    21:00 +4°C° 2 mm 1 mps 683 mmHg 94%
    22:00 +4°C° 2 mm 1 mps 683 mmHg 94%
    23:00 +4°C° 2.6 mm 1 mps 683 mmHg 95%

    Tomorrow, 18 January, Friday

    Time Temperature Precipitation Wind Pressure Humidity
    00:00 +4°C° 2.6 mm 1 mps 683 mmHg 95%
    01:00 +2°C° 2.6 mm 0 mps 683 mmHg 95%
    02:00 +3°C° 3.6 mm 1 mps 683 mmHg 95%
    03:00 +1°C° 3.6 mm 2 mps 683 mmHg 94%
    04:00 +1°C° 3.6 mm 2 mps 683 mmHg 93%
    05:00 -1°C° 3.1 mm 2 mps 683 mmHg 93%
    06:00 -2°C° 3.1 mm 2 mps 683 mmHg 93%
    07:00 -3°C° 3.1 mm 2 mps 683 mmHg 94%
    08:00 -1°C° 1.7 mm 1 mps 684 mmHg 94%
    09:00 -1°C° 1.7 mm 1 mps 685 mmHg 94%
    10:00 0°C° 1.7 mm 1 mps 686 mmHg 94%
    11:00 0°C° 0.5 mm 1 mps 686 mmHg 91%
    12:00 0°C° 0.5 mm 1 mps 687 mmHg 88%
    13:00 +1°C° 0.5 mm 1 mps 687 mmHg 85%
    14:00 +1°C° 0.1 mm 1 mps 687 mmHg 85%
    15:00 0°C° 0.1 mm 1 mps 688 mmHg 86%
    16:00 0°C° 0.1 mm 1 mps 688 mmHg 86%
    17:00 -1°C° 0.1 mm 1 mps 688 mmHg 87%
    18:00 -2°C° 0.1 mm 1 mps 689 mmHg 89%
    19:00 -3°C° 0.1 mm 1 mps 689 mmHg 91%
    20:00 -3°C° 0.1 mm 1 mps 689 mmHg 92%
    21:00 -3°C° 0.1 mm 1 mps 689 mmHg 93%
    22:00 -5°C° 0.1 mm 0 mps 690 mmHg 94%
    23:00 -4°C° 0.1 mm 1 mps 689 mmHg 94%

    Day after tomorrow, 19 January, Saturday

    Time Temperature Precipitation Wind Pressure Humidity
    00:00 -4°C° 0.1 mm 1 mps 689 mmHg 94%
    01:00 -4°C° 0.1 mm 1 mps 689 mmHg 94%
    02:00 -4°C° 0 mm 1 mps 689 mmHg 94%
    03:00 -6°C° 0 mm 1 mps 688 mmHg 94%
    04:00 -6°C° 0 mm 1 mps 688 mmHg 95%
    05:00 -6°C° 0 mm 1 mps 688 mmHg 94%
    06:00 -7°C° 0 mm 1 mps 688 mmHg 94%
    07:00 -7°C° 0 mm 1 mps 688 mmHg 94%
    08:00 -6°C° 0 mm 1 mps 688 mmHg 92%
    09:00 -4°C° 0 mm 1 mps 688 mmHg 89%
    10:00 -3°C° 0 mm 1 mps 688 mmHg 86%
    11:00 -3°C° 0 mm 1 mps 688 mmHg 85%
    12:00 -2°C° 0 mm 1 mps 687 mmHg 83%
    13:00 -1°C° 0 mm 1 mps 687 mmHg 82%
    14:00 -1°C° 0 mm 1 mps 687 mmHg 84%
    15:00 -2°C° 0 mm 1 mps 686 mmHg 86%
    16:00 -2°C° 0 mm 1 mps 686 mmHg 88%
    17:00 -3°C° 0 mm 1 mps 686 mmHg 90%
    18:00 -3°C° 0 mm 1 mps 686 mmHg 91%
    19:00 -4°C° 0 mm 1 mps 686 mmHg 93%
    20:00 -5°C° 0 mm 0 mps 686 mmHg 93%
    21:00 -5°C° 0 mm 0 mps 686 mmHg 93%
    22:00 -6°C° 0 mm 0 mps 686 mmHg 93%
    23:00 -6°C° 0 mm 0 mps 686 mmHg 93%

    20 January, Sunday

    Time Temperature Precipitation Wind Pressure Humidity
    00:00 -7°C° 0 mm 0 mps 686 mmHg 93%
    01:00 -7°C° 0 mm 0 mps 686 mmHg 93%
    02:00 -7°C° 0 mm 0 mps 685 mmHg 92%
    03:00 -7°C° 0 mm 0 mps 685 mmHg 92%
    04:00 -8°C° 0 mm 0 mps 685 mmHg 91%
    05:00 -8°C° 0 mm 1 mps 685 mmHg 91%
    06:00 -8°C° 0 mm 1 mps 685 mmHg 90%
    07:00 -8°C° 0 mm 1 mps 685 mmHg 90%
    08:00 -6°C° 0 mm 0 mps 686 mmHg 87%
    09:00 -4°C° 0 mm 0 mps 686 mmHg 85%
    10:00 -3°C° 0 mm 0 mps 687 mmHg 83%
    11:00 -1°C° 0 mm 0 mps 687 mmHg 82%
    12:00 0°C° 0 mm 0 mps 687 mmHg 81%
    13:00 +1°C° 0 mm 0 mps 687 mmHg 80%
    14:00 0°C° 0 mm 0 mps 687 mmHg 82%
    15:00 0°C° 0 mm 0 mps 686 mmHg 84%
    16:00 -1°C° 0 mm 0 mps 686 mmHg 86%
    17:00 -2°C° 0 mm 0 mps 687 mmHg 88%
    18:00 -3°C° 0 mm 0 mps 687 mmHg 90%
    19:00 -4°C° 0 mm 0 mps 687 mmHg 92%
    20:00 -4°C° 0 mm 0 mps 688 mmHg 92%
    21:00 -5°C° 0 mm 0 mps 688 mmHg 92%
    22:00 -5°C° 0 mm 0 mps 688 mmHg 92%
    23:00 -5°C° 0 mm 0 mps 688 mmHg 92%

    21 January, Monday

    Time Temperature Precipitation Wind Pressure Humidity
    00:00 -5°C° 0 mm 0 mps 688 mmHg 92%
    01:00 -6°C° 0 mm 0 mps 689 mmHg 92%
    02:00 -6°C° 0 mm 0 mps 688 mmHg 92%
    03:00 -6°C° 0 mm 0 mps 688 mmHg 91%
    04:00 -7°C° 0 mm 0 mps 688 mmHg 91%
    05:00 -7°C° 0 mm 0 mps 688 mmHg 91%
    06:00 -7°C° 0 mm 0 mps 689 mmHg 91%
    07:00 -7°C° 0 mm 1 mps 689 mmHg 90%
    08:00 -6°C° 0 mm 1 mps 689 mmHg 88%
    09:00 -4°C° 0 mm 1 mps 690 mmHg 86%
    10:00 -2°C° 0 mm 1 mps 690 mmHg 84%
    11:00 -2°C° 0 mm 1 mps 690 mmHg 83%
    12:00 -1°C° 0 mm 1 mps 690 mmHg 83%
    13:00 0°C° 0 mm 1 mps 689 mmHg 82%
    14:00 0°C° 0 mm 1 mps 689 mmHg 84%
    15:00 -1°C° 0 mm 1 mps 689 mmHg 86%
    16:00 -1°C° 0 mm 1 mps 688 mmHg 88%
    17:00 -2°C° 0 mm 1 mps 688 mmHg 90%
    18:00 -3°C° 0 mm 1 mps 688 mmHg 92%
    19:00 -5°C° 0 mm 0 mps 688 mmHg 94%
    20:00 -6°C° 0 mm 0 mps 688 mmHg 94%
    21:00 -6°C° 0 mm 0 mps 688 mmHg 94%
    22:00 -6°C° 0 mm 0 mps 688 mmHg 94%
    23:00 -6°C° 0 mm 0 mps 688 mmHg 94%

    22 January, Tuesday

    Time Temperature Precipitation Wind Pressure Humidity
    00:00 -6°C° 0 mm 1 mps 687 mmHg 94%
    01:00 -7°C° 0 mm 1 mps 687 mmHg 94%
    02:00 -7°C° 0 mm 1 mps 687 mmHg 93%
    03:00 -7°C° 0 mm 1 mps 686 mmHg 93%
    04:00 -7°C° 0 mm 1 mps 686 mmHg 93%
    05:00 -7°C° 0.1 mm 1 mps 685 mmHg 93%
    06:00 -7°C° 0.1 mm 1 mps 685 mmHg 92%
    07:00 -6°C° 0.1 mm 1 mps 685 mmHg 91%
    08:00 -6°C° 0.2 mm 1 mps 684 mmHg 90%
    09:00 -4°C° 0.2 mm 1 mps 684 mmHg 88%
    10:00 -3°C° 0.2 mm 1 mps 684 mmHg 86%
    11:00 -3°C° 0.3 mm 1 mps 683 mmHg 84%
    12:00 -2°C° 0.3 mm 1 mps 682 mmHg 82%
    13:00 -2°C° 0.3 mm 1 mps 682 mmHg 81%
    14:00 -2°C° 0.2 mm 1 mps 681 mmHg 82%
    15:00 -2°C° 0.2 mm 1 mps 681 mmHg 84%
    16:00 -3°C° 0.2 mm 0 mps 680 mmHg 86%
    17:00 -4°C° 0 mm 0 mps 680 mmHg 88%
    18:00 -5°C° 0 mm 0 mps 680 mmHg 90%
    19:00 -7°C° 0 mm 0 mps 679 mmHg 93%
    20:00 -6°C° 0 mm 0 mps 679 mmHg 93%
    21:00 -6°C° 0 mm 0 mps 679 mmHg 92%
    22:00 -6°C° 0 mm 0 mps 679 mmHg 92%
    23:00 -6°C° 0 mm 0 mps 679 mmHg 92%
    Show more